{"data":{"norad_id":57139,"epoch":"2026-09-20T23:26:53.786688Z","epoch_age_seconds":79744,"freshness":"FRESH","line1":"1 57139U 23090AQ  26263.97701142  .00000028  00000+0  10547-4 0  9999","line2":"2 57139  43.0023 240.1556 0000637 280.8393  79.2387 15.27575494180229","mean_motion":15.27575494,"eccentricity":6.37e-5,"inclination_deg":43.0023,"raan_deg":240.1556,"arg_perigee_deg":280.8393,"mean_anomaly_deg":79.2387,"bstar":1.0547e-5,"rev_number":18022,"period_min":94.267026779103,"perigee_km":482.62553024405,"apogee_km":483.49964707164,"semimajor_km":6861.1995886578,"source":"CELESTRAK","updated_at":"2026-09-21T09:00:33.566149Z"}}